Tracking 19800 objects as of 24-Jul-2019
HD Live streaming from Space Station
objects crossing your sky now

THORAD DELTA 1 DEB

Track THORAD DELTA 1 DEB now!
10-day predictions


NORAD ID: 8566
Int'l Code: 1974-089DD
Perigee: 1,338.1 km
Apogee: 1,468.5 km
Inclination: 101.6 °
Period: 113.7 minutes
Semi major axis: 7774 km
RCS: 0.0546 m2 (small)
Launch date: November 15, 1974
Source: United States (US)
Launch site: AIR FORCE WESTERN TEST RANGE (AFWTR)

Note: This is SATELLITE DEBRIS
aabbcc
Your satellite tracking list
Your tracking list is empty




NASA's NSSDC Master Catalog

Two Line Element Set (TLE):
1  8566U 74089DD  19205.13001363  .00000112  00000-0  82124-3 0  9991
2  8566 101.6063 265.8708 0083859  62.1659 326.4891 12.66515671 63206
Source of the keplerian elements: AFSPC